Time,TemperatureF,DewpointF,PressureIn,WindDirection,WindDirectionDegrees,WindSpeedMPH,WindSpeedGustMPH,Humidity,HourlyPrecipIn,Conditions,Clouds,dailyrainin,SoftwareType,DateUTC
2013-03-24 00:03:00,35.0,23.0,30.00,NW,316,4.0,7.0,62,0.00,,,0.00,,2013-03-24 04:03:00,
2013-03-24 00:13:00,35.0,23.0,30.00,NW,316,4.0,7.0,62,0.00,,,0.00,,2013-03-24 04:13:00,
2013-03-24 00:23:00,34.0,23.0,30.01,North,0,0.0,6.0,63,0.00,,,0.00,,2013-03-24 04:23:00,
2013-03-24 00:33:00,34.0,23.0,30.01,North,0,0.0,5.0,63,0.00,,,0.00,,2013-03-24 04:33:00,
2013-03-24 00:43:00,34.0,23.0,30.01,North,0,0.0,5.0,63,0.00,,,0.00,,2013-03-24 04:43:00,
2013-03-24 00:53:00,34.0,23.0,30.00,NW,311,2.0,4.0,63,0.00,,,0.00,,2013-03-24 04:53:00,
2013-03-24 01:02:00,34.0,23.0,29.99,NW,313,2.0,5.0,64,0.00,,,0.00,,2013-03-24 05:02:00,
2013-03-24 01:13:00,34.0,23.0,29.99,NW,313,2.0,5.0,64,0.00,,,0.00,,2013-03-24 05:13:00,
2013-03-24 01:23:00,33.0,23.0,29.99,North,0,0.0,4.0,65,0.00,,,0.00,,2013-03-24 05:23:00,
2013-03-24 01:32:00,33.0,23.0,29.98,NW,313,1.0,4.0,66,0.00,,,0.00,,2013-03-24 05:32:00,
2013-03-24 01:42:00,33.0,23.0,29.98,NW,313,1.0,4.0,66,0.00,,,0.00,,2013-03-24 05:42:00,
2013-03-24 01:52:00,32.0,22.0,29.99,North,0,0.0,0.0,67,0.00,,,0.00,,2013-03-24 05:52:00,
2013-03-24 02:02:00,32.0,23.0,29.99,North,0,0.0,2.0,68,0.00,,,0.00,,2013-03-24 06:02:00,
2013-03-24 02:12:00,32.0,23.0,29.99,North,0,0.0,2.0,68,0.00,,,0.00,,2013-03-24 06:12:00,
2013-03-24 02:22:00,32.0,23.0,29.98,North,0,0.0,2.0,68,0.00,,,0.00,,2013-03-24 06:22:00,
2013-03-24 02:32:00,32.0,23.0,29.99,North,0,0.0,3.0,68,0.00,,,0.00,,2013-03-24 06:32:00,
2013-03-24 02:42:00,32.0,23.0,29.99,North,0,0.0,3.0,68,0.00,,,0.00,,2013-03-24 06:42:00,
2013-03-24 02:52:00,31.0,22.0,30.00,North,0,0.0,5.0,68,0.00,,,0.00,,2013-03-24 06:52:00,
2013-03-24 03:02:00,31.0,22.0,29.99,North,0,0.0,2.0,69,0.00,,,0.00,,2013-03-24 07:02:00,
2013-03-24 03:12:00,31.0,22.0,29.99,North,0,0.0,2.0,69,0.00,,,0.00,,2013-03-24 07:12:00,
2013-03-24 03:22:00,30.0,22.0,29.99,North,0,0.0,2.0,72,0.00,,,0.00,,2013-03-24 07:22:00,
2013-03-24 03:32:00,30.0,22.0,29.98,North,0,0.0,1.0,72,0.00,,,0.00,,2013-03-24 07:32:00,
2013-03-24 03:42:00,30.0,22.0,29.98,North,0,0.0,1.0,72,0.00,,,0.00,,2013-03-24 07:42:00,
2013-03-24 03:52:00,29.0,21.0,29.99,North,0,0.0,0.0,72,0.00,,,0.00,,2013-03-24 07:52:00,
2013-03-24 04:03:00,29.0,21.0,29.99,North,0,0.0,0.0,72,0.00,,,0.00,,2013-03-24 08:03:00,
2013-03-24 04:12:00,29.0,21.0,29.99,North,0,0.0,0.0,72,0.00,,,0.00,,2013-03-24 08:12:00,
2013-03-24 04:22:00,29.0,21.0,29.99,NW,313,1.0,3.0,72,0.00,,,0.00,,2013-03-24 08:22:00,
2013-03-24 04:32:00,29.0,21.0,29.99,North,0,0.0,2.0,72,0.00,,,0.00,,2013-03-24 08:32:00,
2013-03-24 04:42:00,29.0,21.0,29.99,North,0,0.0,2.0,72,0.00,,,0.00,,2013-03-24 08:42:00,
2013-03-24 04:52:00,29.0,22.0,29.98,North,0,0.0,2.0,74,0.00,,,0.00,,2013-03-24 08:52:00,
2013-03-24 05:02:00,28.0,21.0,29.99,North,0,0.0,0.0,76,0.00,,,0.00,,2013-03-24 09:02:00,
2013-03-24 05:12:00,28.0,21.0,29.99,North,0,0.0,0.0,76,0.00,,,0.00,,2013-03-24 09:12:00,
2013-03-24 05:22:00,28.0,21.0,30.00,North,0,0.0,0.0,76,0.00,,,0.00,,2013-03-24 09:22:00,
2013-03-24 05:33:00,28.0,21.0,30.01,North,0,0.0,0.0,76,0.00,,,0.00,,2013-03-24 09:33:00,
2013-03-24 05:42:00,28.0,21.0,30.01,North,0,0.0,0.0,76,0.00,,,0.00,,2013-03-24 09:42:00,
2013-03-24 05:53:00,28.0,21.0,30.01,North,0,0.0,0.0,76,0.00,,,0.00,,2013-03-24 09:53:00,
2013-03-24 06:03:00,28.0,21.0,30.02,North,0,0.0,2.0,76,0.00,,,0.00,,2013-03-24 10:03:00,
2013-03-24 06:12:00,28.0,21.0,30.02,North,0,0.0,2.0,76,0.00,,,0.00,,2013-03-24 10:12:00,
2013-03-24 06:23:00,28.0,21.0,30.01,North,0,0.0,1.0,76,0.00,,,0.00,,2013-03-24 10:23:00,
2013-03-24 06:33:00,26.0,20.0,30.00,North,0,0.0,0.0,78,0.00,,,0.00,,2013-03-24 10:33:00,
2013-03-24 06:42:00,26.0,20.0,30.00,North,0,0.0,0.0,78,0.00,,,0.00,,2013-03-24 10:42:00,
2013-03-24 06:52:00,26.0,21.0,30.00,North,0,0.0,0.0,80,0.00,,,0.00,,2013-03-24 10:52:00,
2013-03-24 07:03:00,26.0,21.0,30.00,North,0,0.0,2.0,81,0.00,,,0.00,,2013-03-24 11:03:00,
2013-03-24 07:12:00,26.0,21.0,30.00,North,0,0.0,2.0,81,0.00,,,0.00,,2013-03-24 11:12:00,
2013-03-24 07:22:00,26.0,21.0,30.00,North,0,0.0,0.0,80,0.00,,,0.00,,2013-03-24 11:22:00,
2013-03-24 07:33:00,26.0,21.0,30.01,North,0,0.0,0.0,80,0.00,,,0.00,,2013-03-24 11:33:00,
2013-03-24 07:42:00,26.0,21.0,30.01,North,0,0.0,0.0,80,0.00,,,0.00,,2013-03-24 11:42:00,
2013-03-24 07:52:00,26.0,21.0,30.01,North,0,0.0,1.0,80,0.00,,,0.00,,2013-03-24 11:52:00,
2013-03-24 08:03:00,26.0,21.0,30.01,NW,313,1.0,1.0,81,0.00,,,0.00,,2013-03-24 12:03:00,
2013-03-24 08:12:00,26.0,21.0,30.01,NW,313,1.0,1.0,81,0.00,,,0.00,,2013-03-24 12:12:00,
2013-03-24 08:22:00,26.0,22.0,30.01,North,0,0.0,0.0,83,0.00,,,0.00,,2013-03-24 12:22:00,
2013-03-24 08:32:00,26.0,22.0,30.01,North,0,0.0,3.0,83,0.00,,,0.00,,2013-03-24 12:32:00,
2013-03-24 08:42:00,26.0,22.0,30.01,North,0,0.0,3.0,83,0.00,,,0.00,,2013-03-24 12:42:00,
2013-03-24 08:52:00,27.0,22.0,30.01,North,0,0.0,2.0,82,0.00,,,0.00,,2013-03-24 12:52:00,
2013-03-24 09:02:00,29.0,24.0,30.01,NW,313,2.0,5.0,80,0.00,,,0.00,,2013-03-24 13:02:00,
2013-03-24 09:12:00,29.0,24.0,30.01,NW,313,2.0,5.0,80,0.00,,,0.00,,2013-03-24 13:12:00,
2013-03-24 09:22:00,30.0,24.0,29.99,NNW,331,1.0,4.0,78,0.00,,,0.00,,2013-03-24 13:22:00,
2013-03-24 09:32:00,32.0,25.0,29.99,WNW,294,2.0,9.0,75,0.00,,,0.00,,2013-03-24 13:32:00,
2013-03-24 09:42:00,32.0,25.0,29.99,WNW,294,2.0,9.0,75,0.00,,,0.00,,2013-03-24 13:42:00,
2013-03-24 09:52:00,34.0,25.0,29.99,NW,316,5.0,12.0,69,0.00,,,0.00,,2013-03-24 13:52:00,
2013-03-24 10:02:00,34.0,25.0,29.98,NW,325,2.0,8.0,68,0.00,,,0.00,,2013-03-24 14:02:00,
2013-03-24 10:12:00,34.0,25.0,29.98,NW,325,2.0,8.0,68,0.00,,,0.00,,2013-03-24 14:12:00,
2013-03-24 10:22:00,35.0,24.0,29.96,NW,321,6.0,11.0,64,0.00,,,0.00,,2013-03-24 14:22:00,
2013-03-24 10:32:00,36.0,25.0,29.96,NW,318,2.0,10.0,63,0.00,,,0.00,,2013-03-24 14:32:00,
2013-03-24 10:42:00,36.0,25.0,29.96,NW,318,2.0,10.0,63,0.00,,,0.00,,2013-03-24 14:42:00,
2013-03-24 10:53:00,36.0,24.0,29.95,NNW,330,3.0,9.0,61,0.00,,,0.00,,2013-03-24 14:53:00,
2013-03-24 11:02:00,37.0,24.0,29.94,WNW,297,2.0,7.0,60,0.00,,,0.00,,2013-03-24 15:02:00,
2013-03-24 11:12:00,37.0,24.0,29.94,WNW,297,2.0,7.0,60,0.00,,,0.00,,2013-03-24 15:12:00,
2013-03-24 11:22:00,37.0,24.0,29.93,WNW,297,2.0,10.0,59,0.00,,,0.00,,2013-03-24 15:22:00,
2013-03-24 11:33:00,38.0,25.0,29.92,NW,323,4.0,6.0,60,0.00,,,0.00,,2013-03-24 15:33:00,
2013-03-24 11:43:00,38.0,25.0,29.92,NW,323,4.0,6.0,60,0.00,,,0.00,,2013-03-24 15:43:00,
2013-03-24 11:53:00,38.0,25.0,29.91,NNW,330,4.0,10.0,58,0.00,,,0.00,,2013-03-24 15:53:00,
2013-03-24 12:03:00,39.0,26.0,29.90,NW,321,2.0,5.0,59,0.00,,,0.00,,2013-03-24 16:03:00,
2013-03-24 12:12:00,39.0,26.0,29.90,NW,321,2.0,5.0,59,0.00,,,0.00,,2013-03-24 16:12:00,
2013-03-24 12:23:00,39.0,25.0,29.89,NW,324,2.0,10.0,58,0.00,,,0.00,,2013-03-24 16:23:00,
2013-03-24 12:33:00,39.0,25.0,29.90,NW,324,1.0,5.0,58,0.00,,,0.00,,2013-03-24 16:33:00,
2013-03-24 12:42:00,39.0,25.0,29.90,NW,324,1.0,5.0,58,0.00,,,0.00,,2013-03-24 16:42:00,
2013-03-24 12:52:00,40.0,26.0,29.90,NW,318,4.0,7.0,58,0.00,,,0.00,,2013-03-24 16:52:00,
2013-03-24 13:02:00,40.0,25.0,29.88,North,0,0.0,6.0,55,0.00,,,0.00,,2013-03-24 17:02:00,
2013-03-24 13:12:00,40.0,25.0,29.88,North,0,0.0,6.0,55,0.00,,,0.00,,2013-03-24 17:12:00,
2013-03-24 13:23:00,41.0,26.0,29.88,WNW,290,2.0,6.0,55,0.00,,,0.00,,2013-03-24 17:23:00,
2013-03-24 13:33:00,42.0,27.0,29.86,North,0,0.0,3.0,56,0.00,,,0.00,,2013-03-24 17:33:00,
2013-03-24 13:42:00,42.0,27.0,29.86,North,0,0.0,3.0,56,0.00,,,0.00,,2013-03-24 17:42:00,
2013-03-24 13:52:00,42.0,27.0,29.85,North,0,0.0,1.0,54,0.00,,,0.00,,2013-03-24 17:52:00,
2013-03-24 14:03:00,42.0,26.0,29.82,North,0,0.0,7.0,53,0.00,,,0.00,,2013-03-24 18:03:00,
2013-03-24 14:12:00,42.0,26.0,29.82,North,0,0.0,7.0,53,0.00,,,0.00,,2013-03-24 18:12:00,
2013-03-24 14:22:00,42.0,25.0,29.80,WNW,298,7.0,10.0,51,0.00,,,0.00,,2013-03-24 18:22:00,
2013-03-24 14:33:00,42.0,25.0,29.80,North,0,0.0,6.0,51,0.00,,,0.00,,2013-03-24 18:33:00,
2013-03-24 14:43:00,42.0,25.0,29.80,North,0,0.0,6.0,51,0.00,,,0.00,,2013-03-24 18:43:00,
2013-03-24 14:52:00,42.0,25.0,29.80,North,0,0.0,1.0,51,0.00,,,0.00,,2013-03-24 18:52:00,
2013-03-24 15:02:00,43.0,26.0,29.78,WNW,301,1.0,2.0,51,0.00,,,0.00,,2013-03-24 19:02:00,
2013-03-24 15:12:00,43.0,26.0,29.78,WNW,301,1.0,2.0,51,0.00,,,0.00,,2013-03-24 19:12:00,
2013-03-24 15:22:00,43.0,26.0,29.77,WNW,298,3.0,9.0,51,0.00,,,0.00,,2013-03-24 19:22:00,
2013-03-24 15:32:00,43.0,26.0,29.77,WNW,297,2.0,6.0,51,0.00,,,0.00,,2013-03-24 19:32:00,
2013-03-24 15:42:00,43.0,26.0,29.77,WNW,297,2.0,6.0,51,0.00,,,0.00,,2013-03-24 19:42:00,
2013-03-24 15:53:00,43.0,27.0,29.75,WNW,298,1.0,6.0,52,0.00,,,0.00,,2013-03-24 19:53:00,
2013-03-24 16:03:00,43.0,26.0,29.75,WNW,298,3.0,7.0,51,0.00,,,0.00,,2013-03-24 20:03:00,
2013-03-24 16:12:00,43.0,26.0,29.75,WNW,298,3.0,7.0,51,0.00,,,0.00,,2013-03-24 20:12:00,
2013-03-24 16:22:00,43.0,26.0,29.74,WNW,298,1.0,5.0,51,0.00,,,0.00,,2013-03-24 20:22:00,
2013-03-24 16:32:00,43.0,26.0,29.75,North,0,0.0,1.0,50,0.00,,,0.00,,2013-03-24 20:32:00,
2013-03-24 16:42:00,43.0,26.0,29.75,North,0,0.0,1.0,50,0.00,,,0.00,,2013-03-24 20:42:00,
2013-03-24 16:52:00,43.0,26.0,29.75,WNW,298,1.0,3.0,50,0.00,,,0.00,,2013-03-24 20:52:00,
2013-03-24 17:02:00,43.0,25.0,29.74,WNW,298,1.0,4.0,48,0.00,,,0.00,,2013-03-24 21:02:00,
2013-03-24 17:12:00,43.0,25.0,29.74,WNW,298,1.0,4.0,48,0.00,,,0.00,,2013-03-24 21:12:00,
2013-03-24 17:22:00,43.0,25.0,29.74,WNW,297,2.0,3.0,49,0.00,,,0.00,,2013-03-24 21:22:00,
2013-03-24 17:33:00,43.0,25.0,29.74,North,0,0.0,3.0,48,0.00,,,0.00,,2013-03-24 21:33:00,
2013-03-24 17:43:00,43.0,25.0,29.74,North,0,0.0,3.0,48,0.00,,,0.00,,2013-03-24 21:43:00,
2013-03-24 17:53:00,43.0,26.0,29.72,North,0,0.0,4.0,50,0.00,,,0.00,,2013-03-24 21:53:00,
2013-03-24 18:03:00,43.0,25.0,29.72,North,0,0.0,3.0,49,0.00,,,0.00,,2013-03-24 22:03:00,
2013-03-24 18:13:00,42.0,24.0,29.72,North,0,0.0,4.0,49,0.00,,,0.00,,2013-03-24 22:13:00,
2013-03-24 18:23:00,42.0,24.0,29.72,North,0,0.0,4.0,49,0.00,,,0.00,,2013-03-24 22:23:00,
2013-03-24 18:33:00,42.0,24.0,29.72,North,0,0.0,5.0,49,0.00,,,0.00,,2013-03-24 22:33:00,
2013-03-24 18:43:00,42.0,24.0,29.72,North,0,0.0,5.0,49,0.00,,,0.00,,2013-03-24 22:43:00,
2013-03-24 18:53:00,42.0,24.0,29.72,North,0,0.0,3.0,49,0.00,,,0.00,,2013-03-24 22:53:00,
2013-03-24 19:03:00,42.0,24.0,29.74,North,0,0.0,2.0,49,0.00,,,0.00,,2013-03-24 23:03:00,
2013-03-24 19:12:00,42.0,24.0,29.74,North,0,0.0,2.0,49,0.00,,,0.00,,2013-03-24 23:12:00,
2013-03-24 19:22:00,42.0,27.0,29.74,North,0,0.0,6.0,55,0.00,,,0.00,,2013-03-24 23:22:00,
2013-03-24 19:32:00,41.0,27.0,29.74,WNW,301,2.0,7.0,57,0.00,,,0.00,,2013-03-24 23:32:00,
2013-03-24 19:42:00,41.0,27.0,29.74,WNW,301,2.0,7.0,57,0.00,,,0.00,,2013-03-24 23:42:00,
2013-03-24 19:53:00,40.0,26.0,29.74,WNW,301,1.0,5.0,58,0.00,,,0.00,,2013-03-24 23:53:00,
2013-03-24 20:02:00,40.0,27.0,29.75,North,0,0.0,3.0,60,0.00,,,0.00,,2013-03-25 00:02:00,
2013-03-24 20:12:00,40.0,27.0,29.75,North,0,0.0,3.0,60,0.00,,,0.00,,2013-03-25 00:12:00,
2013-03-24 20:22:00,39.0,27.0,29.75,North,0,0.0,3.0,61,0.00,,,0.00,,2013-03-25 00:22:00,
2013-03-24 20:32:00,39.0,27.0,29.75,North,0,0.0,2.0,62,0.00,,,0.00,,2013-03-25 00:32:00,
2013-03-24 20:42:00,39.0,27.0,29.75,North,0,0.0,2.0,62,0.00,,,0.00,,2013-03-25 00:42:00,
2013-03-24 20:53:00,39.0,27.0,29.75,North,0,0.0,0.0,62,0.00,,,0.00,,2013-03-25 00:53:00,
2013-03-24 21:02:00,39.0,27.0,29.75,North,0,0.0,0.0,62,0.00,,,0.00,,2013-03-25 01:02:00,
2013-03-24 21:12:00,39.0,27.0,29.75,North,0,0.0,0.0,62,0.00,,,0.00,,2013-03-25 01:12:00,
2013-03-24 21:22:00,39.0,27.0,29.75,WNW,301,1.0,3.0,63,0.00,,,0.00,,2013-03-25 01:22:00,
2013-03-24 21:32:00,39.0,28.0,29.75,WNW,298,5.0,8.0,64,0.00,,,0.00,,2013-03-25 01:32:00,
2013-03-24 21:42:00,39.0,28.0,29.75,WNW,298,5.0,8.0,64,0.00,,,0.00,,2013-03-25 01:42:00,
2013-03-24 21:52:00,38.0,27.0,29.75,WNW,298,9.0,14.0,64,0.00,,,0.00,,2013-03-25 01:52:00,
2013-03-24 22:02:00,37.0,27.0,29.75,WNW,298,2.0,12.0,66,0.00,,,0.00,,2013-03-25 02:02:00,
2013-03-24 22:12:00,37.0,27.0,29.75,WNW,298,2.0,12.0,66,0.00,,,0.00,,2013-03-25 02:12:00,
2013-03-24 22:22:00,36.0,26.0,29.75,WNW,298,4.0,7.0,67,0.00,,,0.00,,2013-03-25 02:22:00,
2013-03-24 22:33:00,36.0,27.0,29.74,WNW,298,5.0,11.0,69,0.00,,,0.00,,2013-03-25 02:33:00,
2013-03-24 22:42:00,36.0,27.0,29.73,WNW,298,6.0,11.0,70,0.00,,,0.00,,2013-03-25 02:42:00,
2013-03-24 22:52:00,36.0,27.0,29.73,WNW,298,6.0,11.0,70,0.00,,,0.00,,2013-03-25 02:52:00,
2013-03-24 23:03:00,36.0,28.0,29.71,WNW,298,4.0,9.0,71,0.00,,,0.00,,2013-03-25 03:03:00,
2013-03-24 23:13:00,36.0,28.0,29.71,WNW,298,4.0,9.0,71,0.00,,,0.00,,2013-03-25 03:13:00,
2013-03-24 23:23:00,35.0,27.0,29.71,WNW,298,2.0,5.0,73,0.00,,,0.00,,2013-03-25 03:23:00,
2013-03-24 23:34:00,35.0,28.0,29.71,North,0,0.0,2.0,74,0.00,,,0.00,,2013-03-25 03:34:00,
2013-03-24 23:43:00,35.0,28.0,29.72,North,0,0.0,2.0,74,0.00,,,0.00,,2013-03-25 03:43:00,
2013-03-24 23:53:00,35.0,28.0,29.72,North,0,0.0,2.0,74,0.00,,,0.00,,2013-03-25 03:53:00,